Location: Fort Worth, Tx
(32.7431°N, 97.3695°W)
Time: 16:29:40
(UTC-04:00)

Transit 4A - Pass Details

Date: 08 March 2024
Orbit: 871 x 972 km, 66.8° (Epoch: 21 April)

Event Time Altitude Azimuth Distance (km) Brightness Sun altitude
Rises 00:26:02 0° 229° (SW) 3,607 - -57.0°
Reaches altitude 10° 00:28:49 10° 238° (WSW) 2,651 - -57.4°
Maximum altitude 00:34:23 35° 302° (WNW) 1,458 - -58.0°
Drops below altitude 10° 00:39:52 10° 7° (N) 2,597 - -58.6°
Sets 00:42:35 0° 17° (NNE) 3,525 - -58.9°
